CDT,Max TemperatureF,Mean TemperatureF,Min TemperatureF,Max Dew PointF,MeanDew PointF,Min DewpointF,Max Humidity, Mean Humidity, Min Humidity, Max Sea Level PressureIn, Mean Sea Level PressureIn, Min Sea Level PressureIn, Max VisibilityMiles, Mean VisibilityMiles, Min VisibilityMiles, Max Wind SpeedMPH, Mean Wind SpeedMPH, Max Gust SpeedMPH,PrecipitationIn, CloudCover, Events, WindDirDegrees
2012-5-1,79,68,57,73,69,60,100,81,71,29.94,29.81,29.74,10,9,2,22,11,31,1.29,3,Rain-Thunderstorm,190
2012-5-2,82,76,70,72,68,65,91,77,61,29.86,29.80,29.75,10,10,10,23,15,30,0.00,0,,197
2012-5-3,83,76,70,75,72,69,100,86,69,29.90,29.86,29.82,10,10,10,21,10,28,0.00,2,,191
2012-5-4,82,76,70,76,73,70,100,89,71,29.91,29.86,29.82,10,10,7,17,11,28,0.00,0,,202
2012-5-5,87,77,67,75,70,66,100,76,52,29.87,29.84,29.79,10,10,5,16,8,24,0.00,0,,186
2012-5-6,86,78,70,75,72,68,100,84,59,29.90,29.83,29.80,10,10,7,15,8,22,0.00,1,Thunderstorm,187
2012-5-7,70,65,60,68,62,52,100,88,64,30.02,29.96,29.82,10,9,2,18,9,30,1.01,5,Rain-Thunderstorm,25
2012-5-8,72,64,55,60,52,45,100,69,40,30.10,30.04,29.99,10,10,7,7,3,,0.00,1,,354
2012-5-9,70,60,50,58,51,46,100,71,42,30.09,30.03,29.97,10,10,7,12,2,16,0.00,0,,1
2012-5-10,77,64,50,60,55,50,100,66,44,29.99,29.95,29.90,10,10,3,9,3,,0.00,0,,170
2012-5-11,75,65,55,59,56,54,100,72,47,30.12,30.04,29.94,10,10,5,10,3,,0.00,0,,140
2012-5-12,75,66,57,65,60,56,100,81,53,30.20,30.17,30.12,10,10,10,15,2,24,0.00,2,,39
2012-5-13,75,66,57,60,58,55,100,79,51,30.23,30.18,30.12,10,10,10,9,6,,0.00,1,,23
2012-5-14,75,64,52,60,55,51,100,66,43,30.18,30.12,30.05,10,10,7,8,1,9,0.00,0,,46
2012-5-15,80,65,50,61,55,50,99,56,37,30.10,30.06,30.00,10,10,5,6,2,,0.00,0,,236
2012-5-16,80,68,55,61,56,50,100,69,36,30.07,30.04,30.01,10,10,10,10,3,,0.00,0,,52
2012-5-17,84,69,54,62,57,52,100,67,40,30.04,29.98,29.90,10,10,10,9,3,,0.00,0,,166
2012-5-18,84,72,61,62,58,53,83,59,41,29.94,29.89,29.82,10,10,10,18,8,24,0.00,0,,176
2012-5-19,83,74,65,63,60,57,78,62,42,30.01,29.90,29.84,10,10,10,24,11,33,0.00,0,,184
2012-5-20,77,70,62,68,64,56,100,77,56,30.17,30.07,29.98,10,10,7,12,4,17,0.01,1,Rain-Thunderstorm,328
2012-5-21,75,65,55,57,51,43,100,66,36,30.26,30.19,30.12,10,10,10,13,5,17,0.00,0,,27
2012-5-22,79,64,48,55,51,48,100,54,34,30.12,29.99,29.82,10,10,10,10,3,9,0.00,0,,162
2012-5-23,89,74,60,65,58,50,70,56,43,29.82,29.68,29.55,10,10,10,22,11,30,0.00,0,,175
2012-5-24,82,78,75,72,67,64,90,69,61,29.74,29.58,29.49,10,10,10,23,15,33,0.00,2,,195
2012-5-25,90,80,70,75,72,68,100,77,57,29.95,29.85,29.75,10,10,7,20,7,29,0.00,1,,169
2012-5-26,90,80,71,75,71,65,100,75,50,29.99,29.95,29.92,10,10,5,17,8,25,0.00,0,,187
2012-5-27,90,80,70,69,63,57,97,59,35,29.97,29.90,29.80,10,10,10,24,12,33,0.00,0,,196
2012-5-28,90,81,72,72,66,58,81,61,50,29.86,29.81,29.78,10,10,7,22,12,30,0.10,1,Rain-Thunderstorm,208
2012-5-29,90,76,63,71,65,52,100,64,27,29.92,29.88,29.83,10,10,3,8,3,,0.14,0,Rain-Thunderstorm,124
2012-5-30,84,72,60,65,60,56,100,64,39,30.04,29.87,29.74,10,10,5,23,8,33,0.17,1,Rain-Thunderstorm,90
2012-5-31,71,62,54,66,55,49,100,74,53,30.02,29.88,29.71,10,10,3,17,10,28,0.63,3,Rain-Thunderstorm,357